Flag for U.S.A. Weather past 2 weeks in Paradise, California, U.S.A.

Now
55 °F

Passing clouds.


Feels Like: 55 °F
Forecast: 52 / 74 °F
Wind: No wind

Location: Chico Municipal


UV Index: 5 (Moderate)

Visibility: 10 mi


Pressure: 30.11 "Hg

Humidity: 63%

Dew point: 43 °F

Location of ParadiseLocation

Historic Weather in Paradise

°F

Paradise temperature yesterday

Maximum temperature yesterday: 75 °F (at 2:56 PM)
Minimum temperature yesterday: 55 °F (at 4:15 AM)
Average temperature yesterday: 63 °F

Past Weeks' High & Low Weather Summary

 TemperatureHumidityPressure
High84 °F (Apr 17, 3:59 PM)100% (Apr 5, 4:35 AM)30.24 "Hg (Apr 5, 4:35 AM)
Low39 °F (Apr 5, 5:55 AM)18% (Apr 13, 2:57 PM)29.72 "Hg (Apr 17, 5:50 PM)
Average63 °F56%29.96 "Hg
* Reported Apr 5 12:15 AM — Apr 20 12:35 AM, Paradise, Weather by CustomWeather, © 2014

Note: Actual official high and low records may vary slightly from our data, if they occured in-between our weather recording intervals... More about our weather records

Advertising

Historic Weather Conditions — Data for Previous 24 hours

 ConditionsComfort  
Time TempWeatherWind HumidityBarometerVisibility
12:35 AM
Apr 20
59 °FPassing clouds.No wind55%30.10 "Hg10 mi
12:15 AM59 °FPassing clouds.No wind55%30.10 "Hg10 mi
11:55 PM
Apr 19
59 °FPassing clouds.No wind59%30.10 "Hg10 mi
11:35 PM59 °FPassing clouds.No wind59%30.10 "Hg10 mi
11:15 PM63 °FPassing clouds.No wind49%30.09 "Hg10 mi
10:55 PM61 °FPassing clouds.No wind55%30.09 "Hg10 mi
10:35 PM63 °FPassing clouds.7 mph52%30.09 "Hg10 mi
10:15 PM64 °FPassing clouds.7 mph49%30.09 "Hg10 mi
9:55 PM66 °FPassing clouds.3 mph43%30.08 "Hg10 mi
9:35 PM66 °FPassing clouds.7 mph46%30.07 "Hg10 mi
9:15 PM64 °FPassing clouds.8 mph49%30.06 "Hg10 mi
8:55 PM66 °FClear.5 mph46%30.04 "Hg10 mi
8:35 PM68 °FSunny.No wind46%30.03 "Hg10 mi
8:15 PM72 °FSunny.3 mph41%30.03 "Hg10 mi
7:55 PM72 °FSunny.No wind33%30.02 "Hg10 mi
7:35 PM73 °FSunny.3 mph36%30.01 "Hg10 mi
7:15 PM73 °FSunny.5 mph31%30.01 "Hg10 mi
6:55 PM75 °FSunny.7 mph27%30.00 "Hg10 mi
3:58 PM75 °FPartly sunny.12 mph29%29.99 "Hg10 mi
2:56 PM75 °FSunny.12 mph29%30.00 "Hg10 mi
1:59 PM73 °FSunny.17 mph33%30.01 "Hg10 mi
12:55 PM72 °FPartly sunny.17 mph36%30.00 "Hg10 mi
11:48 AM68 °FSunny.17 mph46%30.00 "Hg10 mi
10:51 AM64 °FPartly sunny.14 mph56%29.99 "Hg10 mi
10:03 AM63 °FScattered clouds.No wind59%29.99 "Hg10 mi
8:51 AM59 °FPartly sunny.6 mph63%29.97 "Hg10 mi
7:53 AM59 °FPartly sunny.9 mph68%29.95 "Hg25 mi
6:55 AM55 °FPassing clouds.12 mph72%29.93 "Hg25 mi
6:35 AM55 °FClear.6 mph72%29.93 "Hg10 mi
5:55 AM57 °FClear.3 mph67%29.92 "Hg10 mi
5:35 AM55 °FClear.3 mph72%29.90 "Hg10 mi
5:15 AM55 °FClear.5 mph72%29.90 "Hg10 mi
4:55 AM57 °FPassing clouds.No wind63%29.90 "Hg10 mi
4:35 AM55 °FClear.No wind67%29.89 "Hg10 mi
4:15 AM55 °FClear.No wind72%29.89 "Hg10 mi
3:55 AM57 °FClear.No wind63%29.88 "Hg10 mi
3:35 AM57 °FClear.No wind63%29.87 "Hg10 mi
3:15 AM59 °FClear.No wind59%29.87 "Hg10 mi
2:55 AM59 °FClear.No wind59%29.87 "Hg10 mi
2:35 AM57 °FClear.No wind59%29.87 "Hg10 mi
2:15 AM57 °FClear.No wind55%29.86 "Hg10 mi
1:55 AM57 °FPassing clouds.No wind55%29.87 "Hg10 mi
1:35 AM59 °FPassing clouds.No wind51%29.87 "Hg10 mi
1:15 AM59 °FClear.No wind51%29.86 "Hg10 mi
Weather by CustomWeather, © 2014

See weather overview